DELTA 1 DEB, 10206

Orbit data source: Space-Track

DELTA 1 DEB, 10206 is space debris in LEO originally from a launch on Thu, 14 Jul 1977 UTC launched from the Air Force Eastern Test Range (AFETR). Debris objects in space refer to the collection of defunct objects orbiting the Earth. Examples of debris include non-operational satellites, rocket bodies, and fragments generated from explosions, collisions, or faulty payload assembly.

Loading next visibility...
Identifier
10206, 1977-065AK
Orbit
LEO
Country
Flag of USUS
Related business
Manufacturer
Unknown
Mission
Spacecraft
Bus & Motor
Unknown
Mass
Unknown
Launch date (UTC)
1977-07-14 (48 years ago)
Launch vehicle
Unknown
Launch site
Air Force Eastern Test Range (AFETR)
Object type
Payload
Rocket body
Debris
Shape & HBR
Unknown
Radar Cross Section
Small (<0.1 m²)

Expand to show TLE details & history
Last TLE update: 20 hours ago

TLE from 20 hours ago
0 DELTA 1 DEB
1 10206U 77065AK  25260.00580733  .00001616  00000-0  11952-2 0  9999
2 10206  29.2047 190.2068 0532751 134.0859 230.4827 13.40909573277940
Epoch: 2025-09-17T00:08Z
TLE epoch observation values (Epoch: 2025-09-17T00:08:21.753Z)
Latitude
-0.00001°
Longitude
-168.07182°
Altitude
1,370.008 km
Speed
7.048 km/s
True Right ascension
12h 40m 49s
True Declination
0° 00' 00"
Sunlit
Object was in daylight at epoch
Visualization orbit readout
Latitude
Unknown
Longitude
Unknown
Altitude
Unknown
Speed
Unknown
Apparent Right ascension
Unknown
Apparent Declination
Unknown
Sunlit
N/A
Visualization observer readout
Local Sidereal Time
12:42:36
Azimuth
Unknown
Elevation
Unknown
Doppler factor
Unknown
Orbital elements
Apogee altitude
1,508.613 km
Perigee altitude
710.783 km
Semi-major axis
7,487.835 km
Eccentricity
0.05328
Inclination
29.2047°
RAAN
190.2068°
Arg. of periapsis
134.0859°
True anomaly
225.96959°
Mean anomaly
230.4827°
Eccentric anomaly
228.20693°
Mean motion
3.34972 °/min
Orbital period
107.47 mins
BSTAR
0.0011952
Loading maneuver chart data...
Computing Atmospheric mass density...
Loading historical data...
Loading historical data...
Loading historical data...
Loading historical data...
Loading historical data...
Loading historical data...
Loading historical data...

Documentation

Showing up to 5 results
|